Flag for Pakistan Weather past 2 weeks in Karachi, Pakistan

Now
88 °F

Partly sunny.


Feels Like: 98 °F
Forecast: 82 / 90 °F
Wind: 5 mph from Northwest

Location: Karachi Airport

Current Time: Aug 1, 2014 at 9:19:55 AM

Latest Report: Aug 1, 2014 at 8:59 AM


Visibility: 4 mi

Pressure: 29.50 "Hg

Humidity: 66%

Dew point: 75 °F

Location of KarachiLocation

Historic Weather in Karachi — Graph

°F

Karachi temperature yesterday

Maximum temperature yesterday: 99 °F (at 1:55 PM)
Minimum temperature yesterday: 84 °F (at 1:55 AM)
Average temperature yesterday: 89 °F

Past Weeks' High & Low Weather Summary

 TemperatureHumidityPressure
High99 °F (Jul 31, 1:55 PM)94% (Jul 26, 3:55 AM)29.68 "Hg (Jul 26, 3:55 AM)
Low79 °F (Jul 26, 3:55 AM)44% (Jul 22, 2:55 PM)29.33 "Hg (Jul 20, 2:25 PM)
Average87 °F66%29.51 "Hg
* Reported Jul 17 8:27 AM — Aug 1 8:25 AM, Karachi, Weather by CustomWeather, © 2014

Note: Actual official high and low records may vary slightly from our data, if they occured in-between our weather recording intervals... More about our weather records

Advertising

Karachi weather history for previous 24 hours

 ConditionsComfort  
Time TempWeatherWind HumidityBarometerVisibility
8:25 AM
Aug 1
86 °FPartly sunny.5 mph70%29.50 "Hg4 mi
7:55 AM86 °FPartly sunny.No wind70%29.50 "Hg4 mi
7:25 AM86 °FPartly sunny.6 mph70%29.47 "Hg4 mi
6:55 AM86 °FBroken clouds.6 mph70%29.47 "Hg4 mi
6:25 AM84 °FBroken clouds.6 mph74%29.47 "Hg4 mi
5:55 AM86 °FPassing clouds.5 mph75%29.47 "Hg4 mi
5:25 AM86 °FPassing clouds.8 mph75%29.47 "Hg4 mi
4:25 AM86 °FPassing clouds.2 mph75%29.45 "Hg4 mi
3:25 AM86 °FPartly cloudy.6 mph75%29.45 "Hg4 mi
2:55 AM86 °FPassing clouds.6 mph75%29.45 "Hg4 mi
2:25 AM86 °FPassing clouds.6 mph75%29.45 "Hg4 mi
1:55 AM86 °FPassing clouds.6 mph75%29.47 "Hg4 mi
1:25 AM86 °FPartly cloudy.6 mph75%29.47 "Hg4 mi
12:55 AM86 °FPartly cloudy.10 mph75%29.50 "Hg4 mi
12:25 AM86 °FPartly cloudy.14 mph75%29.50 "Hg4 mi
11:55 PM
Jul 31
86 °FThundershowers. Partly cloudy.12 mph79%29.53 "Hg4 mi
10:55 PM86 °FThundershowers. Partly cloudy.8 mph79%29.53 "Hg4 mi
10:25 PM86 °FThundershowers. Partly cloudy.6 mph75%29.53 "Hg4 mi
9:55 PM86 °FThundershowers. Partly cloudy.9 mph75%29.50 "Hg4 mi
9:25 PM88 °FThundershowers. Passing clouds.8 mph70%29.50 "Hg4 mi
8:55 PM88 °FThundershowers. Passing clouds.9 mph70%29.50 "Hg4 mi
8:25 PM88 °FThundershowers. Partly cloudy.9 mph66%29.47 "Hg4 mi
7:55 PM88 °FPartly cloudy.7 mph66%29.47 "Hg4 mi
7:25 PM90 °FPartly cloudy.9 mph63%29.47 "Hg4 mi
6:55 PM90 °FBroken clouds.12 mph59%29.47 "Hg4 mi
6:25 PM91 °FBroken clouds.9 mph59%29.45 "Hg4 mi
5:55 PM91 °FBroken clouds.15 mph59%29.45 "Hg4 mi
5:25 PM93 °FBroken clouds.13 mph56%29.45 "Hg4 mi
4:55 PM95 °FBroken clouds.14 mph53%29.45 "Hg4 mi
2:55 PM97 °FScattered clouds.15 mph50%29.45 "Hg4 mi
2:25 PM99 °FPartly sunny.14 mph47%29.47 "Hg4 mi
1:55 PM99 °FScattered clouds.12 mph44%29.47 "Hg4 mi
1:25 PM97 °FScattered clouds.5 mph47%29.50 "Hg4 mi
12:55 PM97 °FScattered clouds.9 mph47%29.50 "Hg4 mi
12:25 PM95 °FBroken clouds.10 mph50%29.53 "Hg4 mi
11:55 AM95 °FBroken clouds.8 mph47%29.53 "Hg4 mi
11:25 AM93 °FBroken clouds.8 mph47%29.53 "Hg4 mi
10:55 AM91 °FBroken clouds.9 mph49%29.56 "Hg4 mi
10:25 AM91 °FBroken clouds.12 mph52%29.56 "Hg4 mi
9:55 AM90 °FBroken clouds.7 mph55%29.56 "Hg4 mi
9:25 AM88 °FPartly sunny.8 mph55%29.56 "Hg4 mi
Weather by CustomWeather, © 2014

See weather overviewHow to use our weather pages